カタログに戻る

HULIANWANG DIGUI-12

運用中通信LEO
NORAD 62972·PAYLOAD·🇨🇳 China

打ち上げ Feb 11, 2025 から Wenchang Space Launch Site

Loading…

次のパス (今後24時間)

TLE

最新Source: Space-Track

元期: Sep 14, 2026, 20:35 UTC

1 62972U 25030B   26257.85776239 -.00000097  00000-0  57374-4 0  9992
2 62972  50.0015 274.3393 0000473  41.2547 318.8361 13.29324774 77788

AllMySatでHULIANWANG DIGUI-12をリアルタイム追跡

Download on the App Store